Location: Treviso
(45.6669°N, 12.2430°E)
Time: 23:56:21
(UTC+01:00)

ISS - Pass Details

Date: 09 November 2018
Orbit: 402 x 409 km, 51.6° (Epoch: 14 November)

Event Time Altitude Azimuth Distance (km) Brightness Sun altitude
Exits shadow 05:15:40 34° 352° (N) 695 -2.8 -18.7°
Maximum altitude 05:16:10 36° 15° (NNE) 661 -2.7 -18.6°
Drops below altitude 10° 05:19:14 10° 84° (E) 1,464 0.2 -18.1°
Sets 05:21:25 0° 94° (E) 2,324 1.8 -17.7°
